(284624) = 2007 VH85

Discovered at Socorro on 2007-11-02 by LINEAR.

Orbit

Orbit type: Main Belt

Note: WebGL enabled browser required.

epoch2023-02-25.0
epoch JD2460000.5
perihelion date2020-09-30.00487
perihelion JD2459122.50487
argument of perihelion (°)339.04930
ascending node (°)353.65977
inclination (°)9.41958
eccentricity0.1948480
perihelion distance (AU)2.1869906
Tisserand w.r.t. Jupiter3.3
ΔV w.r.t. Earth (km/sec)9.7
semimajor axis (AU)2.7162457
mean anomaly (°)193.30469
mean daily motion (°/day)0.22016600
aphelion distance (AU)3.246
period (years)4.48
P-vector [x]0.88922229
P-vector [y]-0.39299924
P-vector [z]-0.23416943
Q-vector [x]0.45711822
Q-vector [y]0.74307695
Q-vector [z]0.48875309
absolute magnitude15.94
phase slope0.15
uncertainty0
referenceMPO 745323
observations used448
oppositions16
arc length (days)11337
first opposition used1992
last opposition used2023
residual rms (arc-secs)0.75
perturbers coarse indicatorM-v
perturbers precise indicator003Ek
first observation date used1992-03-25.0
last observation date used2023-04-09.0
computer nameMPCLINUX
JD of orbit computation2456819.405350
perihelion JD uncertainty (days)8.7607E-05
argument of perihelion uncertainty (°)3.6557E-05
ascending node uncertainty (°)3.3658E-05
inclination uncertainty (°)6.5187E-06
eccentricity uncertainty 6.5323E-08
perihelion distance uncertainty (AU)1.7659E-07
Minimum Orbit Intersection Distances (in AU)
for orbit epoch: 2460000.5, reference: E2023-G47
Mercury1.78052
Venus1.45912
Earth1.17863
Mars0.80681
Jupiter2.13653
Saturn6.0077
Uranus15.2073
Neptune27.2101

Observations

456 total observations over interval: 1992 03 25.24527 – 2023 04 09.297517
These data are available for download (format description).

Date (UT) J2000 RA J2000 Dec Magn Location Ref
1992 03 25.24527 12 16 22.98 -04 46 15.0   691 – Steward Observatory, Kitt Peak-Spacewatch MPS 276558
1992 03 25.26480 12 16 21.86 -04 46 11.5 21.4 V 691 – Steward Observatory, Kitt Peak-Spacewatch MPS 276558
1998 10 12.32613 01 10 43.28 +15 37 24.9 18.6 R 699 – Lowell Observatory-LONEOS MPS 276558
1998 10 12.35095 01 10 41.69 +15 37 22.7   699 – Lowell Observatory-LONEOS MPS 276558
1998 10 12.35774 01 10 41.31 +15 37 22.8   699 – Lowell Observatory-LONEOS MPS 276558
2002 07 16.32360 20 23 05.35 -34 05 09.6 18.8   644 – Palomar Mountain/NEAT MPS 276558
2002 07 16.34449 20 23 04.06 -34 05 11.0 18.7   644 – Palomar Mountain/NEAT MPS 276558
2002 07 16.36558 20 23 02.72 -34 05 12.5 18.7   644 – Palomar Mountain/NEAT MPS 276558
2005 02 09.34238 10 56 06.81 +11 35 00.2 21.1 V 691 – Steward Observatory, Kitt Peak-Spacewatch MPS 229180
2005 02 09.36765 10 56 05.60 +11 35 05.2 20.7 V 691 – Steward Observatory, Kitt Peak-Spacewatch MPS 229180
2005 02 09.39334 10 56 04.33 +11 35 10.6 20.7 V 691 – Steward Observatory, Kitt Peak-Spacewatch MPS 229180
2005 03 16.28090 10 25 44.78 +13 19 00.2 20.3 R G96 – Mt. Lemmon Survey MPS 229180
2005 03 16.28626 10 25 44.50 +13 19 00.6 20.3 R G96 – Mt. Lemmon Survey MPS 229180
2005 03 16.29157 10 25 44.26 +13 19 01.2 19.9 R G96 – Mt. Lemmon Survey MPS 229180
2005 03 16.29689 10 25 44.01 +13 19 01.6 20.4 R G96 – Mt. Lemmon Survey MPS 229180
2007 09 10.34531 02 03 33.37 +18 22 29.1 18.8 V 703 – Catalina Sky Survey MPS 229180
2007 09 10.35417 02 03 33.15 +18 22 32.0 19.2 V 703 – Catalina Sky Survey MPS 229180
2007 09 10.36301 02 03 32.90 +18 22 34.8 19.3 V 703 – Catalina Sky Survey MPS 229180
2007 09 10.37191 02 03 32.76 +18 22 37.7 19.4 V 703 – Catalina Sky Survey MPS 229180
2007 09 14.30354 02 02 17.80 +18 41 24.7   704 – Lincoln Laboratory ETS, New Mexico MPS 407550
2007 09 14.31517 02 02 17.46 +18 41 27.5   704 – Lincoln Laboratory ETS, New Mexico MPS 407550
2007 09 14.32688 02 02 17.14 +18 41 30.3   704 – Lincoln Laboratory ETS, New Mexico MPS 407550
2007 09 14.33849 02 02 16.93 +18 41 34.3   704 – Lincoln Laboratory ETS, New Mexico MPS 407550
2007 09 14.35009 02 02 16.57 +18 41 38.0   704 – Lincoln Laboratory ETS, New Mexico MPS 407550
2007 10 08.34644 01 45 12.74 +19 39 24.3 18.6 V 703 – Catalina Sky Survey MPS 229180
2007 10 08.35860 01 45 12.20 +19 39 25.9 18.7 V 703 – Catalina Sky Survey MPS 229180
2007 10 08.35913 01 45 12.13 +19 39 25.3 18.5 V 703 – Catalina Sky Survey MPS 229180
2007 10 08.37139 01 45 11.44 +19 39 25.2 18.8 V 703 – Catalina Sky Survey MPS 229180
2007 10 08.37193 01 45 11.26 +19 39 25.1 18.5 V 703 – Catalina Sky Survey MPS 229180
2007 10 22.26568 01 31 05.82 +19 26 52.4   704 – Lincoln Laboratory ETS, New Mexico MPS 407550
2007 10 22.27728 01 31 05.08 +19 26 51.5   704 – Lincoln Laboratory ETS, New Mexico MPS 407550
2007 10 22.28891 01 31 04.36 +19 26 50.5   704 – Lincoln Laboratory ETS, New Mexico MPS 407550
2007 10 22.30052 01 31 03.59 +19 26 47.5   704 – Lincoln Laboratory ETS, New Mexico MPS 407550
2007 10 30.23366 01 23 20.50 +19 08 40.8 19.0 V 703 – Catalina Sky Survey MPS 229180
2007 10 30.24204 01 23 20.07 +19 08 39.6 18.9 V 703 – Catalina Sky Survey MPS 229180
2007 10 30.25045 01 23 19.35 +19 08 39.4 18.0 V 703 – Catalina Sky Survey MPS 229180
2007 11 02.24816 01 20 38.78 +19 00 34.0 18.6   704 – Lincoln Laboratory ETS, New Mexico MPS 225253
2007 11 02.25979 01 20 38.22 +19 00 31.7 19.2   704 – Lincoln Laboratory ETS, New Mexico MPS 225253
2007 11 02.27144 01 20 37.53 +19 00 29.3 19.3   704 – Lincoln Laboratory ETS, New Mexico MPS 225253
2007 11 02.28308 01 20 36.93 +19 00 27.5 19.1   704 – Lincoln Laboratory ETS, New Mexico MPS 225253
2007 11 02.29472 01 20 36.22 +19 00 26.2 19.4   704 – Lincoln Laboratory ETS, New Mexico MPS 225253
2007 11 08.19859 01 15 52.72 +18 43 39.7 19.3   704 – Lincoln Laboratory ETS, New Mexico MPS 225253
2007 11 08.21066 01 15 52.12 +18 43 38.3 19.2   704 – Lincoln Laboratory ETS, New Mexico MPS 225253
2007 11 08.22272 01 15 51.57 +18 43 35.4 19.5   704 – Lincoln Laboratory ETS, New Mexico MPS 225253
2007 11 08.23480 01 15 51.08 +18 43 33.9 19.5   704 – Lincoln Laboratory ETS, New Mexico MPS 225253
2007 11 08.24689 01 15 50.47 +18 43 31.5 19.9   704 – Lincoln Laboratory ETS, New Mexico MPS 225253
2007 11 08.28036 01 15 48.99 +18 43 25.7 19.6 V 703 – Catalina Sky Survey MPS 227077
2007 11 08.28532 01 15 48.74 +18 43 25.5 19.3 V 703 – Catalina Sky Survey MPS 227077
2007 11 08.29028 01 15 48.56 +18 43 24.0 19.4 V 703 – Catalina Sky Survey MPS 227077
2007 11 08.29523 01 15 48.31 +18 43 23.3 18.8 V 703 – Catalina Sky Survey MPS 227077
2007 11 13.17767 01 12 33.82 +18 29 35.0 19.3 r 699 – Lowell Observatory-LONEOS MPS 227077
2007 11 13.20510 01 12 32.69 +18 29 31.4 19.7 r 699 – Lowell Observatory-LONEOS MPS 227078
2007 11 13.23254 01 12 31.67 +18 29 25.7 19.8 r 699 – Lowell Observatory-LONEOS MPS 227078
2007 11 13.25997 01 12 30.54 +18 29 21.8 19.2 r 699 – Lowell Observatory-LONEOS MPS 227078
2007 11 17.20393 01 10 23.30 +18 18 54.1 19.3   704 – Lincoln Laboratory ETS, New Mexico MPS 228369
2007 11 17.21634 01 10 22.84 +18 18 53.3 19.7   704 – Lincoln Laboratory ETS, New Mexico MPS 228369
2007 11 17.22875 01 10 22.49 +18 18 52.0 19.6   704 – Lincoln Laboratory ETS, New Mexico MPS 228369
2007 11 17.24125 01 10 22.08 +18 18 48.9 19.7   704 – Lincoln Laboratory ETS, New Mexico MPS 228369
2009 01 31.28154 08 37 10.01 +28 57 49.2 20.2   704 – Lincoln Laboratory ETS, New Mexico MPS 272738
2009 01 31.29391 08 37 09.12 +28 57 51.7 20.3   704 – Lincoln Laboratory ETS, New Mexico MPS 272738
2009 01 31.30615 08 37 08.33 +28 57 51.4 20.3   704 – Lincoln Laboratory ETS, New Mexico MPS 272738
2009 01 31.31843 08 37 07.53 +28 57 53.6 20.6   704 – Lincoln Laboratory ETS, New Mexico MPS 272738
2011 06 12.58504 21 11 21.174 -29 34 10.27 19.6 z F51 – Pan-STARRS 1, Haleakala MPS 385361
2011 06 12.59598 21 11 21.309 -29 34 11.52 19.4 z F51 – Pan-STARRS 1, Haleakala MPS 385361
2011 07 29.54771 20 47 56.61 -31 09 31.3 18.5 V E12 – Siding Spring Survey MPS 387793
2011 07 29.55293 20 47 56.25 -31 09 31.6 18.4 V E12 – Siding Spring Survey MPS 387793
2011 07 29.55859 20 47 55.89 -31 09 31.5 18.4 V E12 – Siding Spring Survey MPS 387793
2011 07 29.56439 20 47 55.53 -31 09 32.1 18.5 V E12 – Siding Spring Survey MPS 387793
2011 09 17.52448 20 17 56.40 -27 26 03.8 19.6 V E12 – Siding Spring Survey MPS 392496
2011 09 17.53852 20 17 56.54 -27 25 56.4 19.1 V E12 – Siding Spring Survey MPS 392496
2011 09 17.55272 20 17 56.61 -27 25 50.2 19.3 V E12 – Siding Spring Survey MPS 392496
2011 09 17.56693 20 17 56.83 -27 25 40.9 18.6 V E12 – Siding Spring Survey MPS 392496
2012 10 18.559168 06 26 16.831 +34 43 45.01 21.3 g F51 – Pan-STARRS 1, Haleakala MPS 437757
2012 10 18.571679 06 26 17.067 +34 43 48.24 20.8 g F51 – Pan-STARRS 1, Haleakala MPS 437757
2012 11 07.499551 06 27 12.021 +36 05 29.23 20.0 i F51 – Pan-STARRS 1, Haleakala MPS 441495
2012 11 07.500212 06 27 12.005 +36 05 29.62 19.9 i F51 – Pan-STARRS 1, Haleakala MPS 441495
2012 11 07.512083 06 27 11.765 +36 05 32.33 19.8 i F51 – Pan-STARRS 1, Haleakala MPS 441495
2012 11 07.512743 06 27 11.779 +36 05 32.65 20.0 i F51 – Pan-STARRS 1, Haleakala MPS 441495
2012 12 10.52379 06 01 23.800 +37 41 37.91 20.2 g F51 – Pan-STARRS 1, Haleakala MPS 447624
2012 12 10.53587 06 01 22.965 +37 41 38.48 20.3 g F51 – Pan-STARRS 1, Haleakala MPS 447624
2012 12 22.40412 05 47 23.460 +37 39 14.40 19.7 i F51 – Pan-STARRS 1, Haleakala MPS 448723
2012 12 22.41750 05 47 22.493 +37 39 13.51 19.6 i F51 – Pan-STARRS 1, Haleakala MPS 448723
2012 12 22.48336 05 47 17.714 +37 39 08.44 19.6 r F51 – Pan-STARRS 1, Haleakala MPS 448723
2012 12 22.49580 05 47 16.813 +37 39 07.33 19.8 r F51 – Pan-STARRS 1, Haleakala MPS 448723
2014 02 26.35185 10 52 36.892 +10 48 29.68 20.3 w F51 – Pan-STARRS 1, Haleakala MPS 503790
2014 02 26.36379 10 52 36.225 +10 48 32.25 20.3 w F51 – Pan-STARRS 1, Haleakala MPS 503790
2014 02 26.37569 10 52 35.571 +10 48 34.53 20.4 w F51 – Pan-STARRS 1, Haleakala MPS 503790
2014 02 26.38761 10 52 34.909 +10 48 36.93 20.3 w F51 – Pan-STARRS 1, Haleakala MPS 503790
2014 03 20.47171 10 33 23.228 +11 49 22.71 20.8 r F51 – Pan-STARRS 1, Haleakala MPS 508328
